Location: Poughquag
(41.6090°N, 73.6820°W)
Time: 10:28:27
(UTC-04:00)

S-56A Canister/Altair - Pass Details

Date: 01 June 2020
Orbit: 633 x 2499 km, 38.9° (Epoch: 06 July)

Event Time Altitude Azimuth Distance (km) Brightness Sun altitude
Rises 04:37:55 0° 225° (SW) 3,129 - -7.7°
Exits shadow 04:39:48 - 218° (SW) 2,467 9.5 -7.4°
Reaches altitude 10° 04:40:10 10° 216° (SW) 2,341 9.4 -7.4°
Maximum altitude 04:45:10 38° 149° (SSE) 1,450 8.9 -6.6°
Drops below altitude 10° 04:52:11 10° 85° (E) 3,304 11.8 -5.6°
Sets 04:55:56 0° 79° (E) 4,606 12.9 -5.0°
